Regional Weather Roundup
Issued by NWS

Home | Current Version | Previous Version | Text Only | Print | Product List | Glossary Off
Versions: 1 2 3 4 5 6 7 8 9 10 11 12 13 14 15 16 17 18 19 20 21 22 23 24 25 26 27 28 29 30 31 32 33 34 35 36 37 38 39 40 41 42 43 44 45 46 47 48 49 50

000
ASUS43 KTOP 250708
RWRKS

WEATHER ROUNDUP FOR KANSAS
NATIONAL WEATHER SERVICE GOODLAND KS
200 AM CDT TUE JUL 25 2017

NOTE:  "FAIR" INDICATES FEW OR NO CLOUDS BELOW 12,000 FEET WITH NO
SIGNIFICANT WEATHER AND/OR OBSTRUCTIONS TO VISIBILITY.

KSZ001>006-013>018-027>032-041>047-250800-
NORTHWEST KANSAS

CITY           SKY/WX    TMP DP  RH WIND       PRES   REMARKS
GOODLAND       FAIR      72  61  68 S12       30.04S
HAYS             N/A     78  62  57 S12       30.02S
HILL CITY      FAIR      79  58  48 S12       30.00F
RUSSELL        FAIR      76  63  64 S9        30.01S
$$

KSZ061>065-074>080-084>089-250800-
SOUTHWEST KANSAS

CITY           SKY/WX    TMP DP  RH WIND       PRES   REMARKS
DODGE CITY     FAIR      74  61  63 S9        30.05S
ELKHART          N/A     69  54  58 S8          N/A
GARDEN CITY    FAIR      74  61  63 SE8       30.05S
GREAT BEND     FAIR      76  64  66 S8        30.03S
PRATT          FAIR      77  64  64 S10       30.05S
$$

KSZ066>073-081>083-090>101-250800-
SOUTHEAST KANSAS

CITY           SKY/WX    TMP DP  RH WIND       PRES   REMARKS
CHANUTE        FAIR      79  74  84 E7        30.04S
COFFEYVILLE    FAIR      75  73  93 CALM      30.03R
HUTCHINSON     FAIR      74  66  76 SE5       30.03R
MEDICINE LODGE   N/A     79  66  64 S6        30.03R
NEWTON         FAIR      74  69  85 S5        30.05R
PARSONS        FAIR      73  71  93 CALM      30.04S
WICHITA INTL   FAIR      75  68  78 S6        30.03R
WICHITA JABRA  FAIR      75  69  81 S6        30.03S
WICHITA MCCONL FAIR      77  68  72 S8        30.04R
WINFIELD       FAIR      78  69  73 SE5       30.05R
$$

KSZ007>012-019>026-033>040-048>060-102>105-250800-
NORTHEAST KANSAS

CITY           SKY/WX    TMP DP  RH WIND       PRES   REMARKS
CONCORDIA      FAIR      79  70  74 S13       29.99F
EMPORIA        FAIR      76  73  91 SE9       30.04S
LAWRENCE       FAIR      72  71  97 SE5       30.04S
MANHATTAN      FAIR      79  74  84 E3        30.01S
MARYSVILLE     FAIR      73  70  88 SE7       30.00F
OLATHE IND     FAIR      73  67  81 SE7       30.06R
OLATHE EXE     FAIR      73  68  84 SE7       30.05F
SALINA         FAIR      77  69  76 S8        30.00F
TOPEKA BILLARD FAIR      75  71  87 E3        30.03S
TOPEKA FORBES  FAIR      76  71  85 SE7       30.04S
$$




USA.gov is the U.S. government's official web portal to all federal, state and local government web resources and services.